カタログに戻る

TITAN 4B DEB

運用中LEO
NORAD 27469·DEBRIS·🇺🇸 United States

打ち上げ Aug 17, 2000 から Vandenberg Space Force Base

Loading…

次のパス (今後24時間)

TLE

最新Source: Space-Track

元期: Sep 13, 2026, 21:47 UTC

1 27469U 00047C   26256.90790917  .00000157  00000-0  26625-4 0  9990
2 27469  67.9944  81.7716 0066603 272.0969  87.2545 14.91880420312964

AllMySatでTITAN 4B DEBをリアルタイム追跡

Download on the App Store